Regional Weather Roundup
Issued by NWS State College, PA

Home | Current Version | Previous Version | Graphics & Text | Print | Product List | Glossary Off
Versions: 1 2 3 4 5 6 7 8 9 10 11 12 13 14 15 16 17 18 19 20 21 22 23 24 25 26 27 28 29 30 31 32 33 34 35 36 37 38 39 40 41 42 43 44 45 46 47 48 49 50

000
ASUS41 KCTP 010303
RWRCTP

REGIONAL WEATHER ROUNDUP
NATIONAL WEATHER SERVICE STATE COLLEGE PA
1100 PM EDT SUN AUG 31 2014

Note: "fair" indicates few or no clouds below 12,000 feet with no
significant weather and/or obstructions to visibility.

* = STATION THAT DOES NOT REPORT PRECIPITATION /E.G. RAIN...SNOW...ETC/
    THUNDER OR FOG.

PAZ002>004-007>009-013>016-020>023-029>032-010400-
WESTERN PENNSYLVANIA

CITY           SKY/WX    TMP DP  RH WIND       PRES   REMARKS
ERIE           CLEAR     71  67  87 S5        29.98S
MEADVILLE      MOCLDY    69  67  93 S5        30.03S
FRANKLIN*      CLOUDY    70  66  88 S8        30.04F
NEW CASTLE     MOCLDY    71  71 100 CALM      30.04R
BEAVER COUNTY  NOT AVBL
BUTLER*        CLOUDY    70  68  94 S6        30.05F
PITTSBURGH INT MOCLDY    71  70  96 S5        30.04S
PITTSBURGH     LGT RAIN  71  68  90 S10       30.05S FOG
INDIANA*       CLOUDY    72  70  94 SW5       30.09S FOG
LATROBE        LGT RAIN  72  72 100 S10       30.07S
WASHINGTON CO* PTCLDY    70  68  94 S3        30.06F
$$

PAZ004>006-010>012-017>019-024>028-033>037-041-042-045-046-049>053-010400-
CENTRAL PENNSYLVANIA

CITY           SKY/WX    TMP DP  RH WIND       PRES   REMARKS
BRADFORD       CLOUDY    68  66  93 SW3       30.06F
DUBOIS         MOCLDY    68  67  96 SW7       30.05F
CLEARFIELD     CLOUDY    69  68  96 SW5       30.06S
JOHNSTOWN      CLOUDY    68  65  90 S9        30.10S
ALTOONA        CLOUDY    71  67  87 W6        30.07F
STATE COLLEGE  MOCLDY    70  68  94 SW6       30.05S
WILLIAMSPORT   MOCLDY    71  68  90 CALM      30.00F
SELINSGROVE    CLOUDY    70  68  93 CALM      30.02S FOG
FT INDIANTOWN  CLOUDY    73  73  99 E1        30.03S
CAPITAL CITY   CLOUDY    72  70  93 CALM      30.02F
HARRISBURG     CLOUDY    74  70  87 CALM      30.01F
YORK           CLOUDY    72  71  97 CALM      30.03F
$$

PAZ038>040-043-044-047-048-054-055-060>062-067>071-010400-
EASTERN PENNSYLVANIA

CITY           SKY/WX    TMP DP  RH WIND       PRES   REMARKS
SCRANTON       CLOUDY    70  67  90 CALM      30.03S
MOUNT POCONO   CLOUDY    68  66  93 W6        30.07F
ALLENTOWN      CLOUDY    73  70  90 SW3       30.02S
QUAKERTOWN*    CLOUDY    72  72 100 CALM      30.04S
READING        CLOUDY    76  73  91 CALM      30.01S
LANCASTER      CLOUDY    73  71  93 CALM      30.03S
COATESVILLE    CLOUDY    72  72 100 CALM      30.04F
POTTSTOWN      CLOUDY    73  71  93 CALM      30.04S
BLUE BELL      MOCLDY    73  72  94 CALM      30.03S
DOYLESTOWN     CLOUDY    72  71  97 S6        30.02S
WILLOW GROVE   NOT AVBL
NORTH PHILA    CLOUDY    76  70  82 VRB5      30.04S
PHILADELPHIA   LGT RAIN  74  71  91 CALM      30.03F
$$



USA.gov is the U.S. government's official web portal to all federal, state and local government web resources and services.